TimeCST,TemperatureF,Dew PointF,Humidity,Sea Level PressureIn,VisibilityMPH,Wind Direction,Wind SpeedMPH,Gust SpeedMPH,PrecipitationIn,Events,Conditions,WindDirDegrees,DateUTC
12:53 AM,52.0,39.0,61,29.99,10.0,South,17.3,-,N/A,,Clear,170,2013-03-08 06:53:00
1:53 AM,52.0,39.9,63,30.00,10.0,South,23.0,-,N/A,,Clear,180,2013-03-08 07:53:00
2:53 AM,52.0,41.0,66,29.98,10.0,South,19.6,-,N/A,,Clear,170,2013-03-08 08:53:00
3:53 AM,51.1,41.0,68,29.96,10.0,South,19.6,-,N/A,,Clear,170,2013-03-08 09:53:00
4:53 AM,50.0,42.1,74,29.96,10.0,SSE,15.0,-,N/A,,Clear,160,2013-03-08 10:53:00
5:53 AM,51.1,44.1,77,29.99,10.0,SSE,17.3,-,N/A,,Clear,160,2013-03-08 11:53:00
6:53 AM,51.1,45.0,80,29.99,10.0,SSE,19.6,-,N/A,,Clear,160,2013-03-08 12:53:00
7:53 AM,51.1,46.0,83,30.00,10.0,South,19.6,-,N/A,,Clear,170,2013-03-08 13:53:00
8:53 AM,52.0,46.9,83,30.02,10.0,South,20.7,-,N/A,,Scattered Clouds,170,2013-03-08 14:53:00
9:53 AM,54.0,48.9,83,30.02,10.0,South,20.7,32.2,N/A,,Partly Cloudy,170,2013-03-08 15:53:00
10:29 AM,53.6,48.2,82,30.04,10.0,South,26.5,34.5,N/A,,Mostly Cloudy,170,2013-03-08 16:29:00
10:53 AM,55.0,50.0,83,30.01,10.0,South,25.3,29.9,N/A,,Overcast,170,2013-03-08 16:53:00
11:22 AM,55.4,51.8,88,30.02,10.0,SSE,25.3,29.9,0.00,Rain,Light Rain,160,2013-03-08 17:22:00
11:53 AM,55.0,51.1,86,30.01,10.0,SSE,21.9,-,0.00,,Overcast,160,2013-03-08 17:53:00
12:53 PM,57.9,52.0,81,29.98,10.0,South,24.2,28.8,N/A,,Overcast,170,2013-03-08 18:53:00
1:49 PM,57.2,51.8,82,29.97,10.0,SSE,24.2,31.1,N/A,,Overcast,160,2013-03-08 19:49:00
1:53 PM,57.9,52.0,81,29.95,10.0,SSE,24.2,-,N/A,,Overcast,160,2013-03-08 19:53:00
2:41 PM,57.2,53.6,88,29.95,9.0,SSE,25.3,33.4,N/A,,Overcast,160,2013-03-08 20:41:00
2:53 PM,57.9,53.1,84,29.93,10.0,SSE,25.3,31.1,N/A,,Overcast,160,2013-03-08 20:53:00
3:28 PM,59.0,53.6,82,29.93,10.0,SSE,26.5,32.2,N/A,,Overcast,160,2013-03-08 21:28:00
3:53 PM,60.1,54.0,80,29.89,10.0,SSE,25.3,32.2,N/A,,Overcast,160,2013-03-08 21:53:00
4:53 PM,60.1,54.0,80,29.89,10.0,SSE,24.2,29.9,N/A,,Overcast,160,2013-03-08 22:53:00
5:53 PM,60.1,54.0,80,29.89,10.0,SSE,23.0,28.8,N/A,,Overcast,150,2013-03-08 23:53:00
6:13 PM,59.0,53.6,82,29.91,10.0,SSE,25.3,33.4,N/A,,Overcast,160,2013-03-09 00:13:00
6:53 PM,59.0,54.0,83,29.89,10.0,SSE,19.6,-,N/A,,Overcast,160,2013-03-09 00:53:00
7:22 PM,59.0,53.6,82,29.90,10.0,SSE,20.7,28.8,N/A,,Overcast,150,2013-03-09 01:22:00
7:53 PM,57.9,54.0,87,29.88,10.0,SSE,23.0,31.1,N/A,,Overcast,150,2013-03-09 01:53:00
8:50 PM,57.2,55.4,94,29.88,10.0,SSE,21.9,34.5,N/A,,Overcast,150,2013-03-09 02:50:00
8:53 PM,57.9,55.0,90,29.86,10.0,SSE,25.3,34.5,N/A,,Overcast,150,2013-03-09 02:53:00
9:53 PM,57.9,55.0,90,29.84,8.0,SSE,24.2,34.5,N/A,,Overcast,150,2013-03-09 03:53:00
10:53 PM,59.0,55.0,87,29.86,10.0,South,26.5,36.8,N/A,,Overcast,170,2013-03-09 04:53:00
11:14 PM,57.2,55.4,94,29.90,9.0,South,20.7,32.2,N/A,,Overcast,170,2013-03-09 05:14:00
11:53 PM,57.9,55.9,93,29.86,7.0,South,23.0,27.6,0.00,Rain,Light Rain,170,2013-03-09 05:53:00